Regional Weather Roundup
Issued by NWS Upton, NY

Current Version | Previous Version | Graphics & Text | Print | Product List | Glossary Off
Versions: 1 2 3 4 5 6 7 8 9 10 11 12 13 14 15 16 17 18 19 20 21 22 23 24 25 26 27 28

000
ASUS41 KOKX 272000
RWROKX

REGIONAL WEATHER ROUNDUP
NATIONAL WEATHER SERVICE NEW YORK NY
400 PM EDT THU APR 27 2017

NOTE: "FAIR" INDICATES FEW OR NO CLOUDS BELOW 12,000 FEET WITH NO
SIGNIFICANT WEATHER AND/OR OBSTRUCTIONS TO VISIBILITY.

NYZ071-072-176-178-NJZ106-104-272100-
NEW YORK CITY METRO AREA

CITY           SKY/WX    TMP DP  RH WIND       PRES   REMARKS
Central Park   MOSUNNY   67  58  72 VRB3      29.90F
Wall St Helipt CLOUDY    67  57  70 SE14      29.89F
Bronx Bot Gard   N/A     66  55  68 S12       29.88F
LaGuardia APRT CLOUDY    69  57  65 S15       29.87F
Kennedy INTL   CLOUDY    63  59  87 SE14      29.90F
Breezy Point     N/A     54 N/A N/A SE8         N/A
Newark/Liberty CLOUDY    66  57  72 E15G22    29.87F
Teterboro      CLOUDY    68  58  70 SE13      29.85F
$$

NYZ177-179-078>081-272100-
LONG ISLAND NEW YORK

CITY           SKY/WX    TMP DP  RH WIND       PRES   REMARKS
Jones Beach      N/A     57 N/A N/A S12         N/A
Matinecock PT  NOT AVBL
Farmingdale    CLOUDY    64  57  78 S12       29.90F
MacArthur/ISP  NOT AVBL
Shirley        NOT AVBL
Mt Sinai Harb    N/A    N/A N/A N/A E6          N/A
Westhampton    CLOUDY    61  55  81 S7        29.93F
East Hampton   PTSUNNY   62  56  80 S8        29.91F
Montauk          N/A     56  52  86 SE5       29.94
$$

NYZ052-065-067-272100-
HUDSON VALLEY

CITY           SKY/WX    TMP DP  RH WIND       PRES   REMARKS
White Plains   NOT AVBL
Larchmont Harb   N/A     54 N/A N/A NE5         N/A
Croton O-T Hud   N/A     66 N/A N/A S2          N/A
Newburgh       CLOUDY    66  61  82 SE9       29.87F
Montgomery     CLOUDY    70  60  70 S3        29.83F
Poughkeepsie   CLOUDY    68  58  70 VRB6      29.84F
Albany         CLOUDY    72  56  57 S12       29.82F
$$

NJZ001-105-106-008-010-013-015-019>022-104-272100-
NEW JERSEY

CITY           SKY/WX    TMP DP  RH WIND       PRES   REMARKS
Newark/Liberty CLOUDY    66  57  72 E15G22    29.87F
Teterboro      CLOUDY    68  58  70 SE13      29.85F
Caldwell       CLOUDY    68  58  70 SE9       29.86F
Somerville     CLOUDY    75  63  66 MISG      29.80F
Linden         CLOUDY    67  56  67 SE13      29.86F
Sussex         CLOUDY    71  61  70 SE7       29.83F
Andover          N/A     71  59  65 VRB5      29.82F
Trenton        CLOUDY    78  64  61 S9        29.80F
Millville      CLOUDY    76  66  71 SE9       29.82F
Atlantic City  CLOUDY    65  59  81 SE12      29.85F
Wrightstown    CLOUDY    73  63  68 SE14      29.81F
Toms River     CLOUDY    66  61  84 S13       29.87F
Belmar         CLOUDY    64  57  78 SE10G17   29.88F
$$

PAZ047>061-062-071-272100-
EASTERN PENNSYLVANIA

CITY           SKY/WX    TMP DP  RH WIND       PRES   REMARKS
Philadelphia   NOT AVBL
Allentown      CLOUDY    80  62  54 SE12      29.79F
Scranton       SUNNY     80  59  48 S10G18    29.76F
$$

CTZ002-004>006-009-010-012-RIZ004-006-007-MAZ004-011-015-272100-
SOUTHERN NEW ENGLAND
 IN CT

CITY           SKY/WX    TMP DP  RH WIND       PRES   REMARKS
Bradley INTL   CLOUDY    66  57  72 SE6       29.89F
Hartford       CLOUDY    66  58  75 SE7       29.88F
Danbury        CLOUDY    64  58  80 SE8       29.89F
Wtrbury/Oxford CLOUDY    63  55  77 S7        29.91S
Bridgeport     CLOUDY    62  57  83 E9        29.89F
Meriden        CLOUDY    68  56  65 S9        29.89F
New Haven      CLOUDY    63  57  81 SE9       29.90F
Chester        CLOUDY    66  57  72 S5G12     29.90F
Groton         NOT AVBL
Wilimantic     CLOUDY    68  58  70 SE6       29.90F

 IN RI

CITY           SKY/WX    TMP DP  RH WIND       PRES   REMARKS
Providence     PTSUNNY   62  58  86 SE8       29.91F
Block Island   LGT RAIN  58  56  93 S9        29.94S VSB 1
Westerly       CLOUDY    58  54  86 S7        29.93S
 IN MA

CITY           SKY/WX    TMP DP  RH WIND       PRES   REMARKS
Boston         MOSUNNY   57  54  89 E9        29.91F
Worcester      CLOUDY    63  54  72 S5        29.91F
Westfield      CLOUDY    66  57  72 S6        29.88F
Provincetown   CLOUDY    54  50  86 E5        29.94S
Nantucket      CLOUDY    55  52  89 SW6       29.94F
$$

ANZ330-335-338-340-345-350-353-355-272100-
COASTAL MARINE OBSERVATIONS


STATION/POSITION TIME  SKY/WX   TEMP    WIND        PRES    VSBY  WAVE
                                AIR SEA DIR/SP/G                  HT/PER
                 (UTC)          (F)     (DEG/KT/KT) (MB)    (MI)  (FT/S)
NY HARB ENTRANCE 1850            52 51  140/  8/  8 1012.9          5/10
20 S FIRE ISLAND 1850            53 52  150/  6/  8 1013.1          5/10
GREAT SOUTH BAY  1930            56 59  180/  6/ 10   N/A
23 SSW MONTAUK P 1850            51 49              1014.3          7/10
15 E BARNEGAT LI 1930               53                N/A           6/ 9
HUDSON CANYON    1850            54 52  150/  8/  8 1014.1          7/10
KINGS POINT      1930            62 51  200/ 11/ 11 1011.9
EXECUTION ROCKS  NOT AVBL
CENTRAL LI SOUND 1930            52      90/  4/  4   N/A           0
EASTERN LI SOUND NOT AVBL
ROBBINS REEF     1930            61     160/ 15/ 16 1012.0
$$


>>>>>>>>>>>>>>>>>>>>>>>>>>>> KEY <<<<<<<<<<<<<<<<<<<<<<<<<<<
>                                                          <
>     SKY/WX - Sky Condition/Present Weather               <
>     TMP    - Temperature in Fahrenheit                   <
>     DP     - Dew Point in Fahrenheit                     <
>     RH     - Relative Humidity in Percent                <
>     WIND   - Direction (from) and Speed in MPH           <
>     PRES   - Mean Sea Level Pressure (inches of Hg)      <
>     WCI    - Wind Chill Index                            <
>     VSB    - VISIBILITY IN MILES                         <
>     HX     - HEAT INDEX                                  <
>     TC     - TEMPERATURE IN CELSIUS                      <
>     VRB    - VARIABLE WIND DIRECTION                     <
>                                                          <
>>>>>>>>>>>>>>>>>>>>>>>>>>>> KEY <<<<<<<<<<<<<<<<<<<<<<<<<<<




USA.gov is the U.S. government's official web portal to all federal, state and local government web resources and services.